This is the latest recevied weather packets stored in our database for station/object RN1M-13. If no packets are shown the sender has not sent any weather packets the latest 10 day(s).
| Time | Temp. | Humidity | Pressure | Rain* | Wind** | Luminosity | Snow |
|---|---|---|---|---|---|---|---|
| 1787376246 | 18.33° C | 100% | 1010 hPa | - | - | - | - |
| 1787375346 | 16.67° C | 100% | 1010.3 hPa | - | - | - | - |
| 1787374446 | 16.67° C | 100% | 1010.2 hPa | - | - | - | - |
| 1787373546 | 16.67° C | 100% | 1010.3 hPa | - | - | - | - |
| 1787372646 | 16.67° C | 100% | 1010.5 hPa | - | - | - | - |
| 1787371746 | 16.11° C | 100% | 1010.3 hPa | - | - | - | - |
| 1787370846 | 16.67° C | 100% | 1010.5 hPa | - | - | - | - |
| 1787369946 | 16.67° C | 100% | 1010.5 hPa | - | - | - | - |
| 1787369046 | 16.67° C | 100% | 1010.4 hPa | - | - | - | - |
| 1787368146 | 17.78° C | 100% | 1010 hPa | - | - | - | - |
| 1787367248 | 16.67° C | 100% | 1010.1 hPa | - | - | - | - |
| 1787366349 | 16.67° C | 100% | 1010.5 hPa | - | - | - | - |
| 1787365449 | 16.11° C | 100% | 1010.5 hPa | - | - | - | - |
| 1787364548 | 16.11° C | 100% | 1010.3 hPa | - | - | - | - |
| 1787363648 | 16.67° C | 100% | 1010.1 hPa | - | - | - | - |
| 1787362748 | 16.67° C | 100% | 1010.1 hPa | - | - | - | - |
| 1787361848 | 16.67° C | 100% | 1010 hPa | - | - | - | - |
| 1787360948 | 16.67° C | 100% | 1010 hPa | - | - | - | - |
| 1787360048 | 16.67° C | 100% | 1010.1 hPa | - | - | - | - |
| 1787359148 | 16.67° C | 100% | 1010 hPa | - | - | - | - |
| 1787358248 | 16.67° C | 100% | 1010 hPa | - | - | - | - |
| 1787357348 | 16.67° C | 100% | 1009.9 hPa | - | - | - | - |
* Rain since midnight (hover to see other rain measurements)
** Current wind speed in m/s (hover to see current wind gust speed)